Regional Weather Roundup
Issued by NWS State College, PA

Home | Current Version | Previous Version | Text Only | Print | Product List | Glossary On
Versions: 1 2 3 4 5 6 7 8 9 10 11 12 13 14 15 16 17 18 19 20 21 22 23 24 25 26 27 28 29 30 31 32 33 34 35 36 37 38 39 40 41 42 43 44 45 46 47 48 49 50
000
ASUS41 KCTP 272010
RWRCTP

REGIONAL WEATHER ROUNDUP
NATIONAL WEATHER SERVICE STATE COLLEGE PA
400 PM EDT SAT MAY 27 2017

Note: "fair" indicates few or no clouds below 12,000 feet with no
significant weather and/or obstructions to visibility.

* = STATION THAT DOES NOT REPORT PRECIPITATION /E.G. RAIN...SNOW...ETC/
    THUNDER OR FOG.

PAZ002>004-007>009-013>016-020>023-029>032-272100-
WESTERN PENNSYLVANIA

CITY           SKY/WX    TMP DP  RH WIND       PRES   REMARKS
ERIE           SUNNY     66  53  63 N10       29.90F
MEADVILLE      MOSUNNY   71  55  56 N6        29.89F
FRANKLIN*      CLOUDY    70  54  56 SE3       29.89F
NEW CASTLE     NOT AVBL
BEAVER COUNTY  NOT AVBL
BUTLER*        CLOUDY    70  57  64 W3        29.90F
PITTSBURGH INT PTSUNNY   68  61  78 SW6       29.90F
PITTSBURGH     CLOUDY    67  59  75 SW5       29.90F
INDIANA*       CLOUDY    68  61  77 W5        29.93F
LATROBE        CLOUDY    68  63  83 CALM      29.92S
WASHINGTON CO* CLOUDY    70  61  73 CALM      29.92F
$$

PAZ004>006-010>012-017>019-024>028-033>037-041-042-045-046-049>053-272100-
CENTRAL PENNSYLVANIA

CITY           SKY/WX    TMP DP  RH WIND       PRES   REMARKS
BRADFORD       PTSUNNY   68  51  54 W8        29.91F
DUBOIS         CLOUDY    67  55  65 SW6       29.90F
CLEARFIELD     PTSUNNY   71  57  61 SW3       29.90F
JOHNSTOWN      CLOUDY    63  59  87 W5        29.93S
ALTOONA        CLOUDY    66  58  75 VRB3      29.92F
STATE COLLEGE  CLOUDY    68  55  64 S6        29.90S
WILLIAMSPORT   CLOUDY    72  56  57 E5        29.87S
SELINSGROVE    CLOUDY    72  55  55 CALM      29.89F
FT INDIANTOWN  CLOUDY    73  56  56 SW9       29.88F
CAPITAL CITY   CLOUDY    71  55  56 SW6       29.89F
HARRISBURG     PTSUNNY   71  59  65 S3        29.88F
YORK           CLOUDY    63  61  93 CALM      29.91F
$$

PAZ038>040-043-044-047-048-054-055-060>062-067>071-272100-
EASTERN PENNSYLVANIA

CITY           SKY/WX    TMP DP  RH WIND       PRES   REMARKS
SCRANTON       CLOUDY    69  55  60 CALM      29.89S
MOUNT POCONO   CLOUDY    65  52  62 VRB5      29.91S
ALLENTOWN      CLOUDY    73  55  53 SW7       29.88F
QUAKERTOWN*    CLOUDY    72  55  56 SW7       29.89F
READING        MOSUNNY   74  57  55 NW10      29.87F
LANCASTER      CLOUDY    72  57  59 SW8       29.89F
COATESVILLE    CLOUDY    68  54  60 W5        29.92S
POTTSTOWN      MOSUNNY   71  54  54 W5        29.90F
BLUE BELL      CLOUDY    72  55  56 CALM      29.90S
DOYLESTOWN     CLOUDY    71  57  61 VRB5      29.87F
WILLOW GROVE   NOT AVBL
NORTH PHILA    CLOUDY    73  55  53 VRB3      29.89F
PHILADELPHIA   CLOUDY    72  52  49 W9        29.89F
$$




USA.gov is the U.S. government's official web portal to all federal, state and local government web resources and services.